GW1675 Weather Reports


time (UTC)temp
C
wind
direction
speed
KPH
gust
KPH
rain 1hr
cm
rain 24hr
cm
rain mn
cm
humidity
%
barometer
mb
20260831094605 26 82 9.7 16.1 0.00 0.00 0.00 69 1020.0
20260831093139 27 82 8.0 14.5 0.00 0.00 0.00 69 1019.6
20260831091559 26 82 9.7 14.5 0.00 0.00 0.00 69 1019.6
20260831090101 26 82 8.0 14.5 0.00 0.00 0.00 69 1019.5
20260831084639 25 82 4.8 12.9 0.00 0.00 0.00 69 1019.4
20260831083051 24 82 9.7 19.3 0.00 0.00 0.00 69 1019.3
20260831081602 23 82 12.9 22.5 0.00 0.00 0.00 69 1019.3
20260831080121 23 82 9.7 17.7 0.00 0.00 0.00 69 1019.3
20260831074557 23 82 6.4 17.7 0.00 0.00 0.00 68 1019.2
20260831073101 23 82 4.8 8.0 0.00 0.00 0.00 68 1019.2
20260831071601 22 82 0.0 8.0 0.00 0.00 0.00 68 1019.1
20260831070059 22 82 6.4 22.5 0.00 0.00 0.00 68 1019.0
20260831064557 22 82 11.3 25.7 0.00 0.00 0.00 68 1018.9
20260831063110 22 82 11.3 22.5 0.00 0.00 0.00 68 1018.6
20260831061557 21 82 14.5 20.9 0.00 0.00 0.00 68 1018.5
20260831060123 21 82 11.3 24.1 0.00 0.00 0.00 68 1018.5
20260831054555 21 82 11.3 24.1 0.00 0.00 0.00 68 1018.6
20260831053058 21 81 12.9 22.5 0.00 0.00 0.00 68 1018.7
20260831051555 21 82 14.5 22.5 0.00 0.00 0.00 68 1018.7
20260831050051 22 82 11.3 24.1 0.00 0.00 0.00 68 1018.6
20260831044600 22 81 11.3 24.1 0.00 0.00 0.00 68 1018.6
20260831043058 22 81 11.3 22.5 0.00 0.00 0.00 68 1018.7
20260831041551 22 81 11.3 17.7 0.00 0.00 0.00 68 1018.7
20260831040057 22 81 9.7 19.3 0.00 0.00 0.00 68 1018.8
20260831034610 22 81 9.7 19.3 0.00 0.00 0.00 69 1018.8
20260831033100 23 81 17.7 25.7 0.00 0.00 0.00 69 1018.8
20260831031600 23 80 11.3 19.3 0.00 0.00 0.00 69 1018.8
20260831030100 23 80 11.3 24.1 0.00 0.00 0.00 69 1018.9
20260831024601 23 80 12.9 25.7 0.00 0.00 0.00 69 1019.0
20260831023053 23 80 14.5 24.1 0.00 0.00 0.00 69 1019.2
20260831021601 23 80 16.1 27.4 0.00 0.00 0.00 69 1019.1
20260831014558 24 78 12.9 33.8 0.00 0.00 0.00 69 1019.1
20260831013050 24 80 14.5 25.7 0.00 0.00 0.00 69 1019.2
20260831011604 24 80 12.9 25.7 0.00 0.00 0.00 69 1019.2
20260831010107 24 79 16.1 27.4 0.00 0.00 0.00 69 1019.2
20260831004600 25 79 12.9 25.7 0.00 0.00 0.00 69 1019.2
20260831003051 25 78 11.3 24.1 0.00 0.00 0.00 69 1019.2
20260831001620 25 77 14.5 25.7 0.00 0.00 0.00 69 1019.2
20260831000059 25 77 16.1 25.7 0.00 0.00 0.00 69 1019.0
20260830234608 25 77 16.1 25.7 0.00 0.00 0.00 70 1019.1
20260830233118 26 75 14.5 32.2 0.00 0.00 0.00 70 1019.0
20260830231600 26 74 12.9 29.0 0.00 0.00 0.00 70 1019.0
20260830230109 26 72 14.5 30.6 0.00 0.00 0.00 70 1018.8
20260830224606 26 72 17.7 29.0 0.00 0.00 0.00 70 1018.8
20260830223100 26 72 16.1 33.8 0.00 0.00 0.00 70 1018.6
20260830221556 26 72 16.1 27.4 0.00 0.00 0.00 70 1018.8
20260830220107 27 72 19.3 32.2 0.00 0.00 0.00 70 1018.8
20260830214600 27 72 17.7 29.0 0.00 0.00 0.00 70 1018.7
20260830213051 27 72 14.5 27.4 0.00 0.00 0.00 70 1018.7
20260830211559 27 153 9.7 20.9 0.00 0.00 0.00 70 1018.5
20260830210105 27 165 8.0 16.1 0.00 0.00 0.00 70 1018.5
20260830204559 28 168 8.0 14.5 0.00 0.00 0.00 71 1018.3
20260830203051 29 169 8.0 22.5 0.00 0.00 0.00 71 1018.2
20260830201549 29 168 6.4 11.3 0.00 0.00 0.00 71 1018.0
20260830200057 28 168 4.8 8.0 0.00 0.00 0.00 71 1017.8
20260830194601 27 168 1.6 4.8 0.00 0.00 0.00 70 1017.5
20260830193050 27 168 1.6 6.4 0.00 0.00 0.00 71 1017.4
20260830191607 28 168 3.2 6.4 0.00 0.00 0.00 71 1017.5
20260830190100 28 168 4.8 9.7 0.00 0.00 0.00 71 1017.4
20260830184551 29 168 3.2 8.0 0.00 0.00 0.00 71 1017.3
20260830183106 30 168 4.8 16.1 0.00 0.00 0.00 71 1017.4
20260830181559 30 168 8.0 17.7 0.00 0.00 0.00 71 1017.3
20260830180058 30 168 4.8 17.7 0.00 0.00 0.00 72 1017.4
20260830174615 30 168 11.3 22.5 0.00 0.00 0.00 72 1017.5
20260830173056 30 168 9.7 17.7 0.00 0.00 0.00 72 1017.5
20260830171607 30 168 8.0 22.5 0.00 0.00 0.00 72 1017.6
20260830170100 30 167 9.7 20.9 0.00 0.00 0.00 72 1017.6
20260830164554 30 167 9.7 20.9 0.00 0.00 0.00 72 1017.6
20260830163105 30 167 11.3 20.9 0.00 0.00 0.00 72 1017.7
20260830161558 30 167 9.7 22.5 0.00 0.00 0.00 72 1017.7
20260830160105 30 167 12.9 22.5 0.00 0.00 0.00 72 1017.7
20260830154548 29 168 14.5 22.5 0.00 0.00 0.00 72 1017.9
20260830153100 28 168 9.7 22.5 0.00 0.00 0.00 72 1018.0
20260830151557 28 168 12.9 25.7 0.00 0.00 0.00 72 1018.2
20260830150100 28 165 14.5 24.1 0.00 0.00 0.00 72 1018.2
20260830144602 29 162 9.7 22.5 0.00 0.00 0.00 72 1018.3
20260830143101 30 162 12.9 22.5 0.00 0.00 0.00 72 1018.4
20260830141559 29 158 14.5 20.9 0.00 0.00 0.00 72 1018.6
20260830140058 28 160 8.0 20.9 0.00 0.00 0.00 72 1018.8
20260830134601 27 157 14.5 22.5 0.00 0.00 0.00 72 1018.8
20260830133059 27 150 11.3 20.9 0.00 0.00 0.00 72 1019.1
20260830131558 27 148 14.5 22.5 0.00 0.00 0.00 72 1019.1
20260830130106 27 113 12.9 22.5 0.00 0.00 0.00 72 1019.2
20260830124552 27 103 12.9 19.3 0.00 0.00 0.00 72 1019.4
20260830123059 27 102 12.9 20.9 0.00 0.00 0.00 72 1019.5
20260830121605 27 101 11.3 20.9 0.00 0.00 0.00 72 1019.6
20260830120055 28 97 11.3 19.3 0.00 0.00 0.00 72 1019.6
20260830114555 28 96 9.7 16.1 0.00 0.00 0.00 72 1019.6
20260830113051 27 96 8.0 17.7 0.00 0.00 0.00 72 1019.8
20260830111600 27 96 14.5 20.9 0.00 0.00 0.00 72 1019.8
20260830110057 28 93 6.4 14.5 0.00 0.00 0.00 72 1019.8
20260830104551 27 93 6.4 12.9 0.00 0.00 0.00 72 1019.9
20260830103051 29 94 8.0 19.3 0.00 0.00 0.00 72 1019.8
20260830101600 28 94 11.3 22.5 0.00 0.00 0.00 72 1019.8